Wetbulb
61.47 60.88 59.76 63.56 60.92 62.52 62.11 62.17 62.11 62.95 63.38 63.13 62.47 64.40 65.91 66.65 66.12 66.03 64.77 64.09 63.65 62.29
61.15 61.01 60.35 61.20 62.41 63.79 62.97 63.16 63.61 61.47 62.92 65.14 64.66 63.51 63.17 64.93 64.51 62.01 61.40 61.32 61.78 60.75
60.21 60.10 60.82 61.40 62.58 62.84 62.33 61.24 60.37 59.42 59.93 63.42 64.56 62.61 63.17 64.07 64.76 62.37 64.14 63.18 62.97 62.23
59.86 59.81 60.57 60.42 61.33 61.85 61.90 61.01 59.70 59.78 59.80 60.54 62.54 61.80 61.76 63.25 64.18 63.84 63.86 64.70 63.79 63.13
59.67 59.75 60.42 59.93 60.84 62.08 62.10 62.32 62.01 61.80 61.59 60.53 60.75 60.93 59.92 61.77 63.24 63.61 63.25 62.86 63.12 62.96
59.05 59.67 59.91 59.82 59.95 61.15 62.03 61.57 61.40 61.65 61.25 60.74 60.49 60.34 60.62 61.08 61.39 63.27 63.48 63.20 63.22 62.32
58.97 59.08 59.89 59.86 60.18 61.25 61.50 61.31 60.95 60.18 59.77 59.49 59.92 60.21 59.69 59.49 58.95 58.87 60.49 61.85 62.12 61.94
58.73 58.56 59.13 59.42 59.84 60.35 61.30 61.11 60.67 60.15 60.07 60.13 59.77 58.80 60.15 60.08 60.18 59.29 58.41 58.71 58.29 58.58
57.41 57.36 58.68 58.64 59.05 59.75 60.17 60.25 60.32 60.22 59.98 60.03 57.12 45.41 48.75 57.90 60.36 60.06 59.68 58.60 57.96 57.27
57.34 56.99 58.01 57.79 57.89 58.41 59.74 60.12 59.84 59.42 59.94 59.81 57.90 44.12 44.59 49.57 60.25 60.08 59.77 59.15 58.27 55.95
57.08 57.10 57.87 57.55 57.94 58.23 58.42 59.49 59.37 59.19 59.77 59.70 57.26 43.28 42.46 46.29 57.67 57.40 56.35 56.76 56.84 57.41
56.91 57.14 57.71 57.24 57.19 57.45 57.30 57.26 57.56 58.45 58.46 59.12 58.05 42.39 41.08 49.15 55.09 54.12 52.74 52.14 52.02 53.44
57.82 57.42 57.68 58.62 57.28 56.64 57.30 57.31 56.48 56.40 57.58 53.37 58.15 41.58 40.42 48.07 52.98 52.60 50.88 50.90 50.73 42.17
58.49 57.95 58.98 59.07 57.81 57.05 56.48 56.21 55.76 55.55 56.30 56.53 56.15 55.69 40.77 40.21 54.03 52.45 51.08 50.63 51.14 51.23
MSLP
1013.98 1013.61 1013.69 1013.54 1013.81 1013.70 1013.80 1014.01 1014.14 1014.32 1014.34 1014.26 1014.21 1014.16 1014.55 1015.08 1015.43 1015.95 1016.52 1016.99 1017.70 1017.99
1014.14 1013.98 1014.03 1014.06 1014.11 1013.92 1014.22 1014.55 1014.61 1015.02 1015.18 1015.01 1015.10 1015.28 1015.48 1015.79 1016.21 1016.64 1016.96 1017.37 1017.69 1018.13
1014.36 1014.24 1014.26 1014.29 1014.33 1014.37 1014.28 1014.47 1015.06 1015.06 1015.29 1015.40 1015.60 1015.95 1016.13 1016.42 1016.72 1016.95 1017.25 1017.63 1018.03 1018.60
1014.47 1014.51 1014.40 1014.55 1014.52 1014.51 1014.59 1014.63 1015.05 1015.46 1015.56 1015.74 1015.81 1016.41 1016.70 1016.89 1016.97 1017.10 1017.30 1017.72 1018.35 1018.78
1014.54 1014.70 1014.74 1014.83 1014.96 1014.69 1014.56 1014.83 1015.11 1015.23 1015.52 1015.80 1016.35 1016.39 1016.70 1016.88 1017.06 1017.08 1017.40 1017.92 1018.34 1018.79
1014.62 1014.79 1015.03 1015.14 1015.29 1015.27 1015.07 1015.05 1015.16 1015.37 1015.65 1016.01 1016.47 1016.81 1016.98 1017.10 1017.31 1017.60 1017.95 1018.32 1018.57 1018.87
1014.66 1014.95 1015.16 1015.42 1015.53 1015.62 1015.65 1015.55 1015.59 1015.83 1016.10 1016.45 1016.79 1017.10 1017.44 1017.69 1017.97 1018.50 1018.81 1018.92 1019.20 1019.51
1014.81 1015.06 1015.31 1015.48 1015.74 1015.97 1016.05 1016.13 1016.19 1016.34 1016.59 1016.95 1017.22 1017.57 1017.78 1017.98 1018.16 1018.43 1018.87 1019.31 1019.59 1020.02
1014.77 1015.04 1015.30 1015.62 1015.85 1016.14 1016.41 1016.62 1016.80 1017.01 1017.25 1017.58 1017.84 1018.15 1018.31 1018.50 1018.82 1019.14 1019.36 1019.79 1020.34 1020.92
1014.55 1014.88 1015.24 1015.59 1015.97 1016.30 1016.61 1016.87 1017.08 1017.42 1017.68 1018.10 1018.64 1019.00 1019.18 1019.27 1019.46 1019.68 1020.04 1020.39 1020.83 1021.18
1014.10 1014.58 1015.10 1015.49 1015.81 1016.39 1016.79 1017.00 1017.28 1017.60 1017.95 1018.42 1018.95 1019.31 1019.58 1019.70 1019.89 1020.10 1020.36 1020.58 1020.83 1021.03
1013.67 1014.25 1014.77 1015.30 1015.85 1016.43 1016.87 1017.30 1017.57 1017.83 1018.22 1018.54 1019.01 1019.54 1019.79 1019.84 1019.96 1020.11 1020.38 1020.67 1020.96 1021.32
1013.20 1013.91 1014.44 1014.98 1015.73 1016.25 1016.63 1016.91 1017.22 1017.65 1018.06 1018.49 1018.87 1019.46 1019.74 1019.90 1019.86 1020.19 1020.36 1021.00 1021.50 1022.13
1012.93 1013.57 1014.17 1014.83 1015.49 1015.96 1016.37 1016.63 1017.09 1017.34 1017.80 1018.23 1018.62 1019.01 1019.48 1019.78 1019.79 1019.66 1020.09 1020.41 1021.11 1021.65
Wind_Speed
5 4 4 6 5 5 5 4 5 6 6 6 6 9 11 9 8 11 8 13 8 8
5 6 6 5 5 5 3 3 4 5 4 8 8 7 5 6 9 6 6 6 8 9
4 4 5 4 5 4 2 2 5 3 3 7 8 5 5 5 7 6 7 7 9 8
4 4 5 6 5 4 5 5 8 9 8 6 7 5 5 4 6 7 8 9 10 11
4 5 6 6 7 6 7 7 9 9 10 9 9 6 5 7 7 9 8 7 8 10
4 4 6 6 6 6 7 8 8 9 11 10 10 9 7 8 9 9 8 8 9 10
4 4 5 5 6 6 6 8 9 9 10 10 10 10 10 10 10 9 8 8 8 8
5 5 5 6 6 6 6 7 8 9 9 9 8 7 11 10 10 10 10 9 8 7
6 6 6 6 6 6 7 7 7 8 8 8 6 8 10 9 9 9 9 8 7 7
9 8 8 8 7 7 7 7 7 6 6 7 7 7 8 7 6 6 6 6 6 5
10 10 9 9 8 7 6 6 6 6 5 5 4 5 6 5 5 4 4 4 4 4
11 10 10 9 9 8 7 7 6 6 7 6 5 7 7 6 5 4 4 3 3 4
13 12 11 10 10 7 7 7 6 6 5 4 6 10 10 7 5 6 5 5 5 2
14 13 12 10 8 8 8 7 7 7 6 7 8 8 11 9 6 6 6 5 5 5
Wind_Direction
27 34 55 59 50 59 67 64 59 78 74 77 85 80 101 120 123 116 120 128 129 131
41 27 43 68 69 66 87 101 81 72 100 140 126 108 89 100 117 105 105 115 131 126
52 33 46 65 97 96 51 33 93 92 99 144 144 107 104 100 128 120 139 146 149 138
79 71 45 62 65 68 88 90 108 126 134 147 140 114 115 136 149 141 142 147 157 146
96 94 72 59 60 53 51 79 102 109 112 106 113 127 132 140 145 146 139 136 146 140
108 101 99 77 72 79 67 64 71 93 101 107 115 121 115 115 115 127 139 148 146 136
141 112 111 104 90 98 93 87 81 77 89 96 109 114 116 115 110 111 121 116 121 131
144 134 134 122 108 98 101 99 97 94 85 88 93 99 112 104 104 106 100 92 88 71
158 154 145 135 125 117 122 119 118 111 108 97 80 56 61 95 103 104 108 107 96 101
164 164 158 152 149 145 141 138 132 126 123 108 110 106 99 98 103 111 112 124 136 143
173 170 164 163 161 152 154 152 149 149 139 137 126 130 118 102 116 126 136 153 156 136
176 176 169 170 165 160 160 164 170 175 171 177 160 165 165 167 149 142 149 152 154 148
177 179 181 175 168 166 176 179 178 177 191 184 190 171 177 184 169 172 178 180 170 201
179 181 181 171 170 171 177 173 185 192 193 207 212 186 184 200 188 188 182 176 183 194